Location: Deurze
(52.9838°N, 6.6090°E)
Time: 19:11:48
(UTC+00:00)

Spot 2 Rocket - Pass Details

Date: 11 March 2026
Orbit: 751 x 767 km, 98.3° (Epoch: 20 April)

Event Time Altitude Azimuth Distance (km) Brightness Sun altitude
Exits shadow 20:07:49 63° 139° (SE) 856 3.4 -23.7°
Maximum altitude 20:08:36 79° 72° (ENE) 788 3.4 -23.8°
Drops below altitude 10° 20:13:42 10° 347° (NNW) 2,314 6.5 -24.5°
Sets 20:16:01 0° 346° (NNW) 3,242 7.4 -24.8°
